Hourly Data Report for December 09, 2017

CARBERRY CS
MANITOBA

49°54'20.900" N
99°21'26.800" W
383.50 m
5010547
71170
WZE

Download Data

Hourly Data (December 2017)
Hourly Data Report for December 9, 2017
TIME
LST
Temp Definition
°C
Dew Point Definition
°C
Rel Hum Definition
%
Precip. Amount Definition
mm

Wind Dir Definition
10's deg

Wind Spd Definition
km/h
Visibility Definition
km
Stn Press Definition
kPa
Hmdx Definition


Wind Chill Definition


Weather Definition


00:00 -7.2 -10.6 76 0.0 35 14   97.32   -13 LegendNANA
01:00 -7.4 -11.5 72 0.0 35 17   97.33   -14 LegendNANA
02:00 -7.6 -11.3 74 0.0 36 13   97.35   -13 LegendNANA
03:00 -7.6 -11.3 75 0.0 1 8   97.36   -12 LegendNANA
04:00 -8.1 -11.1 79 0.0 25 4   97.34   -10 LegendNANA
05:00 -9.3 -11.7 82 0.0 22 9   97.33   -14 LegendNANA
06:00 -10.1 -12.1 85 0.0 21 8   97.29   -15 LegendNANA
07:00 -10.0 -12.2 84 0.0 20 10   97.21   -15 LegendNANA
08:00 -9.6 -11.6 85 0.0 20 13   97.06   -16 LegendNANA
09:00 -8.7 -10.9 84 0.0 20 14   96.90   -15 LegendNANA
10:00 -7.8 -10.4 81 0.0 19 16   96.82   -14 LegendNANA
11:00 -5.7 -9.0 78 0.0 20 16   96.74   -12 LegendNANA
12:00 -2.9 -6.4 77 0.0 21 20   96.44   -9 LegendNANA
13:00 -1.3 -6.0 70 0.0 22 18   96.28   -7 LegendNANA
14:00 -0.7 -6.0 67 0.0 24 27   96.11   -7 LegendNANA
15:00 1.1 -5.8 60 0.0 25 28   96.01     LegendNANA
16:00 0.2 -5.3 66 0.0 27 31   96.15     LegendNANA
17:00 -1.4 -6.0 71 0.0 27 20   96.25   -7 LegendNANA
18:00 -2.3 -6.6 72 0.0 28 18   96.36   -8 LegendNANA
19:00 -3.7 -7.1 77 0.0 28 15   96.42   -9 LegendNANA
20:00 -4.1 -7.4 78 0.0 33 9   96.48   -8 LegendNANA
21:00 -6.9 -9.9 79 0.0 31 6   96.53   -10 LegendNANA
22:00 -5.0 -8.2 78 0.0 1 11   96.62   -10 LegendNANA
23:00 -4.8 -7.9 79 0.0 36 8   96.71   -8 LegendNANA

Notes on Data Quality.

Legend

  • E = Estimated
  • M = Missing
  • NA = Not Available*
  • [empty] = Indicates an unobserved value
Date modified: